Regional Weather Roundup
Issued by NWS

Home | Current Version | Previous Version | Text Only | Print | Product List | Glossary On
Versions: 1 2 3 4 5 6 7 8 9 10 11 12 13 14 15 16 17 18 19 20 21 22 23 24 25 26 27 28 29 30 31 32 33 34 35 36 37 38 39 40 41 42 43 44 45 46 47 48 49 50
000
ASUS45 KABQ 180710
RWRNM
NEW MEXICO REGIONAL WEATHER ROUNDUP
NATIONAL WEATHER SERVICE ALBUQUERQUE NM
1200 AM MST MON DEC 18 2017

NOTE: "FAIR" MEANS FEW OR NO CLOUDS BELOW 12,000 FEET AGL WITH NO
       SIGNIFICANT WEATHER OR OBSTRUCTIONS TO VISION.

      THIS PRODUCT IS RELEASED AS TWO VERSIONS.  ONE VERSION NEAR
      THE TOP OF THE HOUR CONTAINING PRELIMINARY DATA FROM ALBUQUERQUE
      AND OTHER STATIONS.  A FINAL VERSION WITH ADDITIONAL DATA IS
      ISSUED ABOUT 10 MINUTES AFTER THE HOUR.

NMZ501-503-504-510>518-180800-
NORTHWEST PLATEAU/NORTHCENTRAL MOUNTAINS

CITY           SKY/WX    TMP DP  RH WIND       PRES   REMARKS
FARMINGTON     FAIR      19   2  47 CALM      30.12S
LOS ALAMOS     FAIR      32   8  35 SW5       30.14R WCI  28
SANTA FE       FAIR      29  27  92 S3        30.12R
TAOS           FAIR      16   4  59 N5        30.15F WCI   9
ANGEL FIRE     FAIR      13   6  73 CALM      30.13F

$$
NMZ402-403-502-505>509-180800-
WESTCENTRAL MOUNTAINS/SOUTHWEST MOUNTAINS

CITY           SKY/WX    TMP DP  RH WIND       PRES   REMARKS
GALLUP         FAIR      22   3  44 CALM      30.11F
GRANTS         FAIR      21   8  57 NW6       30.14R WCI  13
SILVER CITY    CLOUDY    35  34  94 N5        30.08F WCI  31

$$
NMZ407-409-411-412-180800-
SOUTHERN DESERTS

CITY           SKY/WX    TMP DP  RH WIND       PRES   REMARKS
DEMING         CLOUDY    41  40  96 NE6       30.07F
LAS CRUCES     CLOUDY    42  42 100 E5        30.07F
HOLLOMAN AFB   MOCLDY    41  36  81 CALM      30.12F
ALAMOGORDO     MIX PCPN  41  39  93 N5        30.11F
T OR C         CLOUDY    38  35  89 CALM      30.11R

$$
NMZ519>523-180800-
CENTRAL VALLEYS/CENTRAL HIGHLANDS

CITY           SKY/WX    TMP DP  RH WIND       PRES   REMARKS
ALBUQUERQUE    FAIR      37  30  75 NE3       30.11F
MORIARTY ARPT  FAIR      18  15  89 NE5       30.14S WCI  11
CLINES CORNERS FAIR      27  25  92 W14       30.11F WCI  16
BELEN          FAIR      32  30  92 SE5       30.12R WCI  27
SOCORRO        FAIR      34  33  95 S7        30.12R WCI  28

$$
NMZ524>526-539-540-180800-
SOUTHCENTRAL MOUNTAINS

CITY           SKY/WX    TMP DP  RH WIND       PRES   REMARKS
RUIDOSO        CLOUDY    32  30  93 E5        30.15R WCI  27

$$
NMZ527>531-180800-
NORTHEAST HIGHLANDS/NORTHEAST PLAINS

CITY           SKY/WX    TMP DP  RH WIND       PRES   REMARKS
LAS VEGAS      FAIR      27   8  44 S13       30.07S WCI  16
RATON          FAIR      21  11  65 NE7       30.04F WCI  12
CLAYTON        FAIR      32  23  69 W15       29.99F WCI  22

$$
NMZ532>537-180800-
EASTCENTRAL PLAINS

CITY           SKY/WX    TMP DP  RH WIND       PRES   REMARKS
SANTA ROSA     FAIR      37  28  72 SW6       30.06S WCI  32
TUCUMCARI      FAIR      33  21  61 SW8       30.04S WCI  26
CANNON AFB     CLEAR     35  24  62 CALM      30.10R
CLOVIS AIRPORT FAIR      30  22  72 W6        30.09S WCI  24

$$
NMZ028-029-538-180800-
SOUTHEAST PLAINS

CITY           SKY/WX    TMP DP  RH WIND       PRES   REMARKS
ROSWELL        FAIR      40  28  62 W5        30.09R
ARTESIA        FAIR      46  34  61 N14       30.07F
CARLSBAD       FAIR      46  35  65 N6        30.05S
HOBBS          FAIR      39  27  60 N7        30.06F WCI  34


$$




USA.gov is the U.S. government's official web portal to all federal, state and local government web resources and services.